Weather History for Bangor, ME

Change the Weather History Date:

Monday, February 18, 2013

  Actual Average Record
Temperature  
Mean Temperature 21 °F 22 °F  
Max Temperature 27 °F 32 °F 55 °F (1981)
Min Temperature 14 °F 11 °F -16 °F (1934)
Degree Days  
Heating Degree Days 44 43  
Month to date heating degree days 811 820  
Since 1 July heating degree days 5027 5227  
Cooling Degree Days 0 0  
Month to date cooling degree days 0 0  
Year to date cooling degree days 0 0  
Moisture  
Dew Point 1 °F    
Average Humidity 45    
Maximum Humidity 54    
Minimum Humidity 36    
Precipitation  
Precipitation 0.00 in 0.09 in 1.58 in (1952)
Month to date precipitation 0.90 1.59  
Year to date precipitation 1.77 4.48  
Snow  
Snow 0.00 in 0.60 in 11.60 in (1955)
Month to date snowfall 30.0 9.8  
Since 1 July snowfall 55.6 45.8  
Snow Depth 15.00 in    
Sea Level Pressure  
Sea Level Pressure 29.62 in    
Wind  
Wind Speed 19 mph (WNW)    
Max Wind Speed 31 mph    
Max Gust Speed 44 mph    
Visibility 10 miles    
Events Snow    
T = Trace of Precipitation, MM = Missing Value Source: NWS Daily Summary

Daily Weather History Graph

Daily Weather History Graph

Search for Another Location

Airport:

Trip Planner

Search our weather history database for the weather conditions in past years. The results will help you decide how hot, cold, wet, or windy it might be!

Date:

Astronomy

Feb. 18, 2013 Rise Set
Actual Time 6:30 AM EST 5:08 PM EST
Civil Twilight 6:00 AM EST 5:38 PM EST
Nautical Twilight 5:26 AM EST 6:12 PM EST
Astronomical Twilight 4:53 AM EST 6:46 PM EST
Moon 10:44 AM EST (2/18) 1:14 AM EST (2/18)
Length of Visible Light 11h 37m
Length of Day
10h 37m
First Quarter, 58% of the Moon is Illuminated
Feb 18
First Quarter
Feb 25
Full
Mar 4
Last Quarter
Mar 11
New
Mar 19
First Quarter

Hourly Weather History & Observations

Time (EST) Temp. Windchill Dew Point Humidity Pressure Visibility Wind Dir Wind Speed Gust Speed Precip Events Conditions
12:53 AM 17.1 °F 0.1 °F 3.0 °F 54% 29.31 in 9.0 mi WNW 20.7 mph 33.4 mph N/A Snow Blowing Snow
1:53 AM 16.0 °F 0.6 °F 1.9 °F 54% 29.33 in 10.0 mi WNW 16.1 mph 26.5 mph N/A Snow Blowing Snow
2:53 AM 15.1 °F -0.6 °F -0.0 °F 51% 29.35 in 9.0 mi WNW 16.1 mph 26.5 mph N/A Snow Blowing Snow
3:53 AM 15.1 °F -0.6 °F -0.9 °F 49% 29.37 in 10.0 mi WNW 16.1 mph 34.5 mph N/A Snow Blowing Snow
4:53 AM 15.1 °F -2.0 °F -0.9 °F 49% 29.42 in 9.0 mi NW 19.6 mph 31.1 mph N/A Snow Blowing Snow
5:53 AM 15.1 °F -4.4 °F -0.9 °F 49% 29.44 in 9.0 mi WNW 26.5 mph 43.7 mph N/A Snow Blowing Snow
6:53 AM 14.0 °F -3.9 °F -2.0 °F 49% 29.48 in 7.0 mi WNW 20.7 mph 36.8 mph N/A Snow Blowing Snow
7:53 AM 15.1 °F -1.1 °F -0.9 °F 49% 29.54 in 10.0 mi NW 17.3 mph 25.3 mph N/A Snow Blowing Snow
8:53 AM 16.0 °F -3.2 °F -0.0 °F 49% 29.56 in 10.0 mi NW 26.5 mph 32.2 mph N/A Snow Blowing Snow
9:53 AM 19.0 °F 1.0 °F -0.0 °F 43% 29.57 in 10.0 mi NW 26.5 mph 42.6 mph N/A Snow Blowing Snow
10:53 AM 21.0 °F 3.6 °F 1.0 °F 42% 29.58 in 10.0 mi WNW 26.5 mph 42.6 mph N/A Snow Blowing Snow
11:53 AM 23.0 °F 6.6 °F 1.9 °F 40% 29.58 in 10.0 mi WNW 25.3 mph 38.0 mph N/A Snow Blowing Snow
12:53 PM 25.0 °F 10.2 °F 3.9 °F 41% 29.60 in 10.0 mi NW 21.9 mph 40.3 mph N/A Snow Blowing Snow
1:53 PM 26.1 °F 11.0 °F 3.9 °F 39% 29.64 in 9.0 mi NW 24.2 mph 34.5 mph N/A   Clear
2:53 PM 26.1 °F 11.0 °F 3.9 °F 39% 29.67 in 10.0 mi WNW 24.2 mph 40.3 mph N/A Snow Blowing Snow
3:53 PM 26.1 °F 13.1 °F 3.9 °F 39% 29.71 in 10.0 mi NW 17.3 mph 29.9 mph N/A   Clear
4:53 PM 24.1 °F 9.8 °F 1.9 °F 38% 29.75 in 10.0 mi NW 19.6 mph 36.8 mph N/A   Clear
5:53 PM 21.9 °F 8.2 °F 1.9 °F 42% 29.80 in 10.0 mi NW 16.1 mph 24.2 mph N/A   Clear
6:53 PM 21.9 °F 9.2 °F 1.0 °F 40% 29.83 in 10.0 mi NW 13.8 mph - N/A   Clear
7:53 PM 21.9 °F 8.7 °F 1.0 °F 40% 29.85 in 10.0 mi NW 15.0 mph 27.6 mph N/A   Clear
8:53 PM 21.0 °F 9.3 °F 1.0 °F 42% 29.87 in 10.0 mi NW 11.5 mph 28.8 mph N/A   Clear
9:53 PM 21.0 °F 7.6 °F -0.0 °F 40% 29.87 in 10.0 mi WNW 15.0 mph 24.2 mph N/A   Clear
10:53 PM 19.9 °F 10.1 °F 1.0 °F 44% 29.89 in 10.0 mi West 8.1 mph - N/A   Clear
11:53 PM 19.0 °F 8.2 °F -0.9 °F 42% 29.92 in 10.0 mi West 9.2 mph - N/A   Clear